Location: Mactaquac Provincial Park
(45.9573°N, 66.8897°W)
Time: 01:18:26
(UTC-03:00)

Cosmos 1867 - Visible Passes

Search period start: 31 August 2016 00:00
Search period end: 10 September 2016 00:00
Orbit: 773 x 802 km, 65.0° (Epoch: 30 August)

Date Brightness Start Highest point End Pass type
(mag) Time Alt. Az. Time Alt. Az. Time Alt. Az.
31 Aug 6.1 00:54:19 11° ENE 00:54:19 11° ENE 00:54:38 10° ENE visible
31 Aug 4.6 02:34:58 42° N 02:34:58 42° N 02:38:51 10° NNE visible
31 Aug 5.7 04:15:38 13° WNW 04:18:11 17° NNW 04:21:45 10° NNE visible
01 Sep 5.0 02:04:07 35° NNE 02:04:07 35° NNE 02:07:14 10° NNE visible
01 Sep 5.5 03:44:47 18° NW 03:46:15 20° NNW 03:50:16 10° NNE visible
01 Sep 6.3 05:31:31 10° NNW 05:32:08 10° N 05:32:44 10° N visible
02 Sep 5.4 01:33:16 26° NE 01:33:16 26° NE 01:35:36 10° NE visible
02 Sep 5.3 03:13:55 23° NW 03:14:21 24° NW 03:18:45 10° NNE visible
02 Sep 6.2 04:58:47 10° NNW 05:00:03 11° N 05:01:19 10° N visible
03 Sep 5.7 01:02:22 19° NE 01:02:22 19° NE 01:03:54 10° NE visible
03 Sep 5.2 02:43:01 28° NNW 02:43:01 28° NNW 02:47:13 10° NNE visible
03 Sep 6.1 04:26:08 10° NNW 04:28:00 12° NNW 04:29:52 10° N visible
03 Sep 6.2 06:12:26 10° N 06:14:13 11° NNE 06:16:00 10° NNE visible
04 Sep 6.0 00:31:28 14° NE 00:31:28 14° NE 00:32:09 10° NE visible
04 Sep 5.2 02:12:07 30° N 02:12:07 30° N 02:15:41 10° NNE visible
04 Sep 6.1 03:53:32 10° NW 03:55:57 13° NNW 03:58:23 10° N visible
04 Sep 6.3 05:40:59 10° N 05:42:10 11° N 05:43:20 10° NNE visible
05 Sep 5.3 01:41:10 29° N 01:41:10 29° N 01:44:08 10° NNE visible
05 Sep 6.0 03:21:49 12° NW 03:23:56 14° NNW 03:26:54 10° N visible
05 Sep 6.4 05:09:35 10° N 05:10:05 10° N 05:10:36 10° N visible
06 Sep 5.5 01:10:13 25° NNE 01:10:13 25° NNE 01:12:33 10° NNE visible
06 Sep 5.8 02:50:51 16° NW 02:51:58 17° NNW 02:55:25 10° NNE visible
06 Sep 6.1 06:20:32 10° NNW 06:24:02 17° NNE 06:27:31 10° ENE visible
07 Sep 5.7 00:39:13 21° NNE 00:39:13 21° NNE 00:40:57 10° NNE visible
07 Sep 5.7 02:19:51 19° NNW 02:20:01 19° NNW 02:23:56 10° NNE visible
07 Sep 6.5 04:05:28 10° N 04:05:55 10° N 04:06:21 10° N visible
07 Sep 6.2 05:49:03 10° N 05:52:03 15° NNE 05:55:03 10° NE visible
08 Sep 5.8 00:08:11 16° NE 00:08:11 16° NE 00:09:18 10° NE visible
08 Sep 5.7 01:48:50 22° NNW 01:48:50 22° NNW 01:52:25 10° NNE visible
08 Sep 6.4 03:32:43 10° NNW 03:33:51 11° N 03:34:58 10° N visible
08 Sep 6.3 05:17:35 10° N 05:20:03 13° NNE 05:22:31 10° NE visible
08 Sep 6.0 23:37:08 13° NE 23:37:08 13° NE 23:37:37 10° NE visible
09 Sep 5.6 01:17:46 24° N 01:17:46 24° N 01:20:54 10° NNE visible
09 Sep 6.3 03:00:02 10° NNW 03:01:46 11° NNW 03:03:32 10° N visible
09 Sep 6.4 04:46:06 10° N 04:48:01 12° NNE 04:49:55 10° NE visible
